Time,TemperatureF,DewpointF,PressureIn,WindDirection,WindDirectionDegrees,WindSpeedMPH,WindSpeedGustMPH,Humidity,HourlyPrecipIn,Conditions,Clouds,dailyrainin,SoftwareType,DateUTC
2013-05-26 00:01:00,56.0,51.9,30.15,SSW,211,0.0,0.0,86,0.00,,SKC,0.00,VWS V13.00,2013-05-26 05:01:00,
2013-05-26 00:06:00,55.7,51.9,30.16,SSW,211,0.0,0.0,87,0.00,,SKC,0.00,VWS V13.00,2013-05-26 05:06:00,
2013-05-26 00:11:00,55.3,51.8,30.16,SSW,211,0.0,0.0,88,0.00,,SKC,0.00,VWS V13.00,2013-05-26 05:11:00,
2013-05-26 00:16:00,55.0,52.1,30.15,SSW,211,0.0,0.0,90,0.00,,SKC,0.00,VWS V13.00,2013-05-26 05:16:00,
2013-05-26 00:21:00,54.7,51.8,30.15,SSW,211,0.0,0.0,90,0.00,,SKC,0.00,VWS V13.00,2013-05-26 05:21:00,
2013-05-26 00:26:00,54.5,51.6,30.15,SSW,211,0.0,0.0,90,0.00,,SKC,0.00,VWS V13.00,2013-05-26 05:26:00,
2013-05-26 00:31:00,54.3,50.8,30.15,SSW,211,0.0,0.0,88,0.00,,SKC,0.00,VWS V13.00,2013-05-26 05:31:00,
2013-05-26 00:36:00,54.1,50.6,30.15,SSW,211,0.0,0.0,88,0.00,,SKC,0.00,VWS V13.00,2013-05-26 05:36:00,
2013-05-26 00:41:00,53.9,50.4,30.15,SSW,211,0.0,0.0,88,0.00,,SKC,0.00,VWS V13.00,2013-05-26 05:41:00,
2013-05-26 00:46:00,54.0,49.9,30.15,SSW,211,0.0,0.0,86,0.00,,SKC,0.00,VWS V13.00,2013-05-26 05:46:00,
2013-05-26 00:51:00,54.1,49.7,30.15,SSW,211,0.0,0.0,85,0.00,,SKC,0.00,VWS V13.00,2013-05-26 05:51:00,
2013-05-26 00:56:00,54.2,50.4,30.15,SSW,211,0.0,0.0,87,0.00,,SKC,0.00,VWS V13.00,2013-05-26 05:56:00,
2013-05-26 01:01:00,54.1,51.2,30.15,SSW,211,0.0,0.0,90,0.00,,SKC,0.00,VWS V13.00,2013-05-26 06:01:00,
2013-05-26 01:06:00,54.0,51.1,30.14,SSW,211,0.0,0.0,90,0.00,,SKC,0.00,VWS V13.00,2013-05-26 06:06:00,
2013-05-26 01:11:00,53.6,50.4,30.14,SSW,211,0.0,0.0,89,0.00,,SKC,0.00,VWS V13.00,2013-05-26 06:11:00,
2013-05-26 01:16:00,53.2,50.7,30.15,SSW,211,0.0,0.0,91,0.00,,SKC,0.00,VWS V13.00,2013-05-26 06:16:00,
2013-05-26 01:23:00,53.0,51.0,30.15,SSW,211,0.0,0.0,93,0.00,,SKC,0.00,VWS V13.00,2013-05-26 06:23:00,
2013-05-26 01:28:00,52.8,50.8,30.15,SSW,211,0.0,0.0,93,0.00,,SKC,0.00,VWS V13.00,2013-05-26 06:28:00,
2013-05-26 01:33:00,52.8,51.1,30.14,SSW,211,0.0,0.0,94,0.00,,SKC,0.00,VWS V13.00,2013-05-26 06:33:00,
2013-05-26 01:38:00,52.8,51.1,30.14,SSW,211,0.0,0.0,94,0.00,,SKC,0.00,VWS V13.00,2013-05-26 06:38:00,
2013-05-26 01:43:00,52.8,51.1,30.14,SSW,211,0.0,0.0,94,0.00,,SKC,0.00,VWS V13.00,2013-05-26 06:43:00,
2013-05-26 01:48:00,52.8,51.1,30.14,SSW,211,0.0,0.0,94,0.00,,SKC,0.00,VWS V13.00,2013-05-26 06:48:00,
2013-05-26 01:53:00,52.8,51.1,30.14,SSW,211,0.0,0.0,94,0.00,,SKC,0.00,VWS V13.00,2013-05-26 06:53:00,
2013-05-26 01:58:00,52.7,51.0,30.14,SSW,211,0.0,0.0,94,0.00,,SKC,0.00,VWS V13.00,2013-05-26 06:58:00,
2013-05-26 02:03:00,52.7,51.0,30.14,SSW,211,0.0,0.0,94,0.00,,SKC,0.00,VWS V13.00,2013-05-26 07:03:00,
2013-05-26 02:08:00,52.8,51.1,30.14,SSW,211,0.0,0.0,94,0.00,,SKC,0.00,VWS V13.00,2013-05-26 07:08:00,
2013-05-26 02:13:00,52.8,51.1,30.14,SSW,211,0.0,0.0,94,0.00,,SKC,0.00,VWS V13.00,2013-05-26 07:13:00,
2013-05-26 02:18:00,53.0,51.6,30.14,SSW,211,0.0,0.0,95,0.00,,SKC,0.00,VWS V13.00,2013-05-26 07:18:00,
2013-05-26 02:23:00,53.1,51.7,30.14,SSW,211,0.0,0.0,95,0.00,,SKC,0.00,VWS V13.00,2013-05-26 07:23:00,
2013-05-26 02:28:00,53.1,51.4,30.14,SSW,211,0.0,0.0,94,0.00,,SKC,0.00,VWS V13.00,2013-05-26 07:28:00,
2013-05-26 02:33:00,52.9,51.2,30.14,SSW,211,0.0,0.0,94,0.00,,SKC,0.00,VWS V13.00,2013-05-26 07:33:00,
2013-05-26 02:38:00,52.8,50.8,30.14,SSW,211,0.0,0.0,93,0.00,,SKC,0.00,VWS V13.00,2013-05-26 07:38:00,
2013-05-26 02:43:00,52.6,50.6,30.14,SSW,211,0.0,0.0,93,0.00,,SKC,0.00,VWS V13.00,2013-05-26 07:43:00,
2013-05-26 02:48:00,52.4,50.7,30.14,SSW,211,0.0,0.0,94,0.00,,SKC,0.00,VWS V13.00,2013-05-26 07:48:00,
2013-05-26 02:53:00,52.4,50.7,30.14,SSW,211,0.0,0.0,94,0.00,,SKC,0.00,VWS V13.00,2013-05-26 07:53:00,
2013-05-26 02:58:00,52.3,50.6,30.14,SSW,211,0.0,0.0,94,0.00,,SKC,0.00,VWS V13.00,2013-05-26 07:58:00,
2013-05-26 03:03:00,52.3,50.9,30.14,SSW,211,0.0,0.0,95,0.00,,SKC,0.00,VWS V13.00,2013-05-26 08:03:00,
2013-05-26 03:08:00,52.5,51.1,30.15,SSW,211,0.0,0.0,95,0.00,,SKC,0.00,VWS V13.00,2013-05-26 08:08:00,
2013-05-26 03:13:00,52.5,51.1,30.15,SSW,211,0.0,0.0,95,0.00,,SKC,0.00,VWS V13.00,2013-05-26 08:13:00,
2013-05-26 03:18:00,52.4,51.0,30.15,SSW,211,0.0,0.0,95,0.00,,SKC,0.00,VWS V13.00,2013-05-26 08:18:00,
2013-05-26 03:23:00,52.3,50.9,30.15,SSW,211,0.0,0.0,95,0.00,,SKC,0.00,VWS V13.00,2013-05-26 08:23:00,
2013-05-26 03:28:00,52.2,50.8,30.16,SSW,211,0.0,0.0,95,0.00,,SKC,0.00,VWS V13.00,2013-05-26 08:28:00,
2013-05-26 03:33:00,52.1,50.7,30.16,SSW,211,0.0,0.0,95,0.00,,SKC,0.00,VWS V13.00,2013-05-26 08:33:00,
2013-05-26 03:38:00,52.0,50.6,30.16,SSW,211,0.0,0.0,95,0.00,,SKC,0.00,VWS V13.00,2013-05-26 08:38:00,
2013-05-26 03:43:00,51.9,50.5,30.16,SSW,211,0.0,0.0,95,0.00,,SKC,0.00,VWS V13.00,2013-05-26 08:43:00,
2013-05-26 03:48:00,51.9,50.5,30.16,SSW,211,0.0,0.0,95,0.00,,SKC,0.00,VWS V13.00,2013-05-26 08:48:00,
2013-05-26 03:53:00,51.8,50.4,30.17,SSW,211,0.0,0.0,95,0.00,,SKC,0.00,VWS V13.00,2013-05-26 08:53:00,
2013-05-26 03:58:00,51.7,50.3,30.17,SSW,211,0.0,0.0,95,0.00,,SKC,0.00,VWS V13.00,2013-05-26 08:58:00,
2013-05-26 04:03:00,51.5,50.1,30.16,SSW,211,0.0,0.0,95,0.00,,SKC,0.00,VWS V13.00,2013-05-26 09:03:00,
2013-05-26 04:08:00,51.3,49.9,30.17,SSW,211,0.0,0.0,95,0.00,,SKC,0.00,VWS V13.00,2013-05-26 09:08:00,
2013-05-26 04:13:00,51.3,50.2,30.17,SSW,211,0.0,0.0,96,0.00,,SKC,0.00,VWS V13.00,2013-05-26 09:13:00,
2013-05-26 04:18:00,51.3,50.2,30.17,SSW,211,0.0,0.0,96,0.00,,SKC,0.00,VWS V13.00,2013-05-26 09:18:00,
2013-05-26 04:23:00,51.3,50.2,30.17,SSW,211,0.0,0.0,96,0.00,,SKC,0.00,VWS V13.00,2013-05-26 09:23:00,
2013-05-26 04:28:00,51.2,50.1,30.18,SSW,211,0.0,0.0,96,0.00,,SKC,0.00,VWS V13.00,2013-05-26 09:28:00,
2013-05-26 04:33:00,51.2,50.1,30.18,SSW,211,0.0,0.0,96,0.00,,SKC,0.00,VWS V13.00,2013-05-26 09:33:00,
2013-05-26 04:37:00,51.3,50.2,30.18,SSW,211,0.0,2.0,96,0.00,,SKC,0.00,VWS V13.00,2013-05-26 09:37:00,
2013-05-26 04:42:00,51.4,50.3,30.18,SSW,211,0.0,2.0,96,0.00,,SKC,0.00,VWS V13.00,2013-05-26 09:42:00,
2013-05-26 04:47:00,51.3,50.2,30.18,SSW,211,0.0,2.0,96,0.00,,SKC,0.00,VWS V13.00,2013-05-26 09:47:00,
2013-05-26 04:52:00,51.4,50.3,30.18,SSW,211,0.0,2.0,96,0.00,,SKC,0.00,VWS V13.00,2013-05-26 09:52:00,
2013-05-26 04:57:00,51.4,50.3,30.18,SSW,211,0.0,2.0,96,0.00,,SKC,0.00,VWS V13.00,2013-05-26 09:57:00,
2013-05-26 05:02:00,51.3,50.2,30.19,SSW,211,0.0,0.0,96,0.00,,SKC,0.00,VWS V13.00,2013-05-26 10:02:00,
2013-05-26 05:07:00,51.0,49.6,30.19,SSW,211,0.0,0.0,95,0.00,,SKC,0.00,VWS V13.00,2013-05-26 10:07:00,
2013-05-26 05:12:00,50.8,49.4,30.19,SSW,211,0.0,0.0,95,0.00,,SKC,0.00,VWS V13.00,2013-05-26 10:12:00,
2013-05-26 05:17:00,50.7,49.3,30.19,SSW,211,0.0,0.0,95,0.00,,SKC,0.00,VWS V13.00,2013-05-26 10:17:00,
2013-05-26 05:22:00,50.6,49.5,30.19,SSW,211,0.0,0.0,96,0.00,,SKC,0.00,VWS V13.00,2013-05-26 10:22:00,
2013-05-26 05:27:00,50.6,49.5,30.19,SSW,211,0.0,0.0,96,0.00,,SKC,0.00,VWS V13.00,2013-05-26 10:27:00,
2013-05-26 05:32:00,50.5,49.4,30.20,SSW,211,0.0,0.0,96,0.00,,SKC,0.00,VWS V13.00,2013-05-26 10:32:00,
2013-05-26 05:37:00,50.4,49.3,30.20,SSW,211,0.0,0.0,96,0.00,,SKC,0.00,VWS V13.00,2013-05-26 10:37:00,
2013-05-26 05:42:00,50.5,49.4,30.20,NE,49,3.0,5.0,96,0.00,,SKC,0.00,VWS V13.00,2013-05-26 10:42:00,
2013-05-26 05:47:00,50.4,49.3,30.21,ENE,63,0.0,5.0,96,0.00,,SKC,0.00,VWS V13.00,2013-05-26 10:47:00,
2013-05-26 05:52:00,50.1,49.0,30.21,ENE,63,0.0,5.0,96,0.00,,SKC,0.00,VWS V13.00,2013-05-26 10:52:00,
2013-05-26 05:57:00,50.2,49.1,30.21,ENE,63,0.0,5.0,96,0.00,,SKC,0.00,VWS V13.00,2013-05-26 10:57:00,
2013-05-26 06:02:00,50.2,49.1,30.22,ENE,63,0.0,0.0,96,0.00,,SKC,0.00,VWS V13.00,2013-05-26 11:02:00,
2013-05-26 06:07:00,50.1,49.0,30.22,ENE,63,0.0,0.0,96,0.00,,SKC,0.00,VWS V13.00,2013-05-26 11:07:00,
2013-05-26 06:12:00,50.3,49.5,30.22,ENE,63,0.0,0.0,97,0.00,,SKC,0.00,VWS V13.00,2013-05-26 11:12:00,
2013-05-26 06:17:00,50.6,49.8,30.22,ENE,63,0.0,0.0,97,0.00,,SKC,0.00,VWS V13.00,2013-05-26 11:17:00,
2013-05-26 06:22:00,50.8,50.0,30.22,ENE,63,0.0,0.0,97,0.00,,SKC,0.00,VWS V13.00,2013-05-26 11:22:00,
2013-05-26 06:27:00,51.2,50.7,30.22,ENE,63,0.0,0.0,98,0.00,,SKC,0.00,VWS V13.00,2013-05-26 11:27:00,
2013-05-26 06:32:00,51.9,51.4,30.22,ENE,63,0.0,0.0,98,0.00,,SKC,0.00,VWS V13.00,2013-05-26 11:32:00,
2013-05-26 06:37:00,52.7,52.2,30.21,ENE,63,0.0,0.0,98,0.00,,SKC,0.00,VWS V13.00,2013-05-26 11:37:00,
2013-05-26 06:42:00,53.6,53.0,30.22,ENE,63,0.0,0.0,98,0.00,,SKC,0.00,VWS V13.00,2013-05-26 11:42:00,
2013-05-26 06:47:00,54.8,54.2,30.21,ENE,63,0.0,0.0,98,0.00,,SKC,0.00,VWS V13.00,2013-05-26 11:47:00,
2013-05-26 06:52:00,56.0,55.5,30.21,ENE,63,0.0,0.0,98,0.00,,SKC,0.00,VWS V13.00,2013-05-26 11:52:00,
2013-05-26 06:57:00,56.9,55.8,30.21,ENE,63,0.0,0.0,96,0.00,,SKC,0.00,VWS V13.00,2013-05-26 11:57:00,
2013-05-26 07:02:00,58.2,56.2,30.22,ENE,63,0.0,0.0,93,0.00,,SKC,0.00,VWS V13.00,2013-05-26 12:02:00,
2013-05-26 07:07:00,59.6,56.7,30.21,ENE,63,0.0,0.0,90,0.00,,SKC,0.00,VWS V13.00,2013-05-26 12:07:00,
2013-05-26 07:12:00,60.9,56.4,30.22,ENE,59,1.0,2.0,85,0.00,,SKC,0.00,VWS V13.00,2013-05-26 12:12:00,
2013-05-26 07:17:00,61.3,54.7,30.22,ENE,76,2.0,5.0,79,0.00,,SKC,0.00,VWS V13.00,2013-05-26 12:17:00,
2013-05-26 07:22:00,61.2,55.0,30.22,ENE,72,1.0,5.0,80,0.00,,SKC,0.00,VWS V13.00,2013-05-26 12:22:00,
2013-05-26 07:27:00,61.6,55.4,30.21,ENE,71,1.0,5.0,80,0.00,,SKC,0.00,VWS V13.00,2013-05-26 12:27:00,
2013-05-26 07:32:00,62.0,55.4,30.22,NE,53,1.0,4.0,79,0.00,,SKC,0.00,VWS V13.00,2013-05-26 12:32:00,
2013-05-26 07:37:00,62.2,57.0,30.21,ENE,57,1.0,4.0,83,0.00,,SKC,0.00,VWS V13.00,2013-05-26 12:37:00,
2013-05-26 07:42:00,62.4,56.8,30.22,ENE,57,4.0,5.0,82,0.00,,SKC,0.00,VWS V13.00,2013-05-26 12:42:00,
2013-05-26 07:47:00,62.7,55.4,30.22,ENE,65,4.0,6.0,77,0.00,,SKC,0.00,VWS V13.00,2013-05-26 12:47:00,
2013-05-26 07:52:00,63.2,55.5,30.22,East,80,1.0,6.0,76,0.00,,SKC,0.00,VWS V13.00,2013-05-26 12:52:00,
2013-05-26 07:57:00,63.8,55.0,30.22,East,96,2.0,6.0,73,0.00,,SKC,0.00,VWS V13.00,2013-05-26 12:57:00,
2013-05-26 08:02:00,64.7,56.2,30.22,East,92,4.0,4.0,74,0.00,,SKC,0.00,VWS V13.00,2013-05-26 13:02:00,
2013-05-26 08:07:00,65.6,56.7,30.22,ESE,104,3.0,5.0,73,0.00,,SKC,0.00,VWS V13.00,2013-05-26 13:07:00,
2013-05-26 08:12:00,66.2,56.1,30.22,East,101,0.0,5.0,70,0.00,,SKC,0.00,VWS V13.00,2013-05-26 13:12:00,
2013-05-26 08:17:00,67.2,55.0,30.22,East,98,1.0,5.0,65,0.00,,SKC,0.00,VWS V13.00,2013-05-26 13:17:00,
2013-05-26 08:22:00,68.0,56.2,30.22,East,101,2.0,5.0,66,0.00,,SKC,0.00,VWS V13.00,2013-05-26 13:22:00,
2013-05-26 08:27:00,68.7,56.0,30.22,East,98,2.0,5.0,64,0.00,,SKC,0.00,VWS V13.00,2013-05-26 13:27:00,
2013-05-26 08:32:00,69.3,57.5,30.22,ENE,68,4.0,4.0,66,0.00,,SKC,0.00,VWS V13.00,2013-05-26 13:32:00,
2013-05-26 08:37:00,69.7,56.6,30.21,ENE,75,2.0,4.0,63,0.00,,SKC,0.00,VWS V13.00,2013-05-26 13:37:00,
2013-05-26 08:42:00,70.4,56.8,30.21,East,90,2.0,5.0,62,0.00,,SKC,0.00,VWS V13.00,2013-05-26 13:42:00,
2013-05-26 08:47:00,71.1,56.1,30.21,ESE,113,4.0,5.0,59,0.00,,SKC,0.00,VWS V13.00,2013-05-26 13:47:00,
2013-05-26 08:52:00,71.7,57.1,30.21,SSE,153,1.0,5.0,60,0.00,,SKC,0.00,VWS V13.00,2013-05-26 13:52:00,
2013-05-26 08:57:00,72.2,57.6,30.21,South,169,4.0,5.0,60,0.00,,SKC,0.00,VWS V13.00,2013-05-26 13:57:00,
2013-05-26 09:02:00,72.6,56.0,30.21,South,177,5.0,5.0,56,0.00,,SKC,0.00,VWS V13.00,2013-05-26 14:02:00,
2013-05-26 09:07:00,72.6,54.0,30.21,South,190,4.0,6.0,52,0.00,,SKC,0.00,VWS V13.00,2013-05-26 14:07:00,
2013-05-26 09:12:00,72.9,55.8,30.21,SE,142,3.0,6.0,55,0.00,,SKC,0.00,VWS V13.00,2013-05-26 14:12:00,
2013-05-26 09:17:00,73.2,55.6,30.21,SE,129,4.0,6.0,54,0.00,,SKC,0.00,VWS V13.00,2013-05-26 14:17:00,
2013-05-26 09:22:00,73.3,55.2,30.21,SSW,198,3.0,7.0,53,0.00,,SKC,0.00,VWS V13.00,2013-05-26 14:22:00,
2013-05-26 09:27:00,73.4,55.8,30.21,SSW,213,1.0,7.0,54,0.00,,SKC,0.00,VWS V13.00,2013-05-26 14:27:00,
2013-05-26 09:32:00,73.8,57.6,30.21,South,188,1.0,7.0,57,0.00,,SKC,0.00,VWS V13.00,2013-05-26 14:32:00,
2013-05-26 09:37:00,74.2,55.5,30.20,SSE,151,4.0,7.0,52,0.00,,SKC,0.00,VWS V13.00,2013-05-26 14:37:00,
2013-05-26 09:42:00,74.2,54.4,30.20,South,169,1.0,8.0,50,0.00,,SKC,0.00,VWS V13.00,2013-05-26 14:42:00,
2013-05-26 09:47:00,74.4,57.7,30.20,South,173,4.0,8.0,56,0.00,,SKC,0.00,VWS V13.00,2013-05-26 14:47:00,
2013-05-26 09:52:00,74.8,58.6,30.20,South,180,5.0,8.0,57,0.00,,SKC,0.00,VWS V13.00,2013-05-26 14:52:00,
2013-05-26 09:57:00,75.0,58.3,30.20,SSE,157,2.0,8.0,56,0.00,,SKC,0.00,VWS V13.00,2013-05-26 14:57:00,
2013-05-26 10:02:00,75.2,58.9,30.20,SSE,151,1.0,8.0,57,0.00,,SKC,0.00,VWS V13.00,2013-05-26 15:02:00,
2013-05-26 10:07:00,75.4,59.1,30.20,SSW,197,5.0,6.0,57,0.00,,SKC,0.00,VWS V13.00,2013-05-26 15:07:00,
2013-05-26 10:12:00,75.5,57.7,30.20,SW,222,2.0,6.0,54,0.00,,SKC,0.00,VWS V13.00,2013-05-26 15:12:00,
2013-05-26 10:17:00,75.7,57.4,30.20,SE,145,4.0,6.0,53,0.00,,SKC,0.00,VWS V13.00,2013-05-26 15:17:00,
2013-05-26 10:22:00,76.2,57.8,30.20,NE,55,0.0,6.0,53,0.00,,SKC,0.00,VWS V13.00,2013-05-26 15:22:00,
2013-05-26 10:27:00,76.5,56.5,30.20,West,269,3.0,6.0,50,0.00,,SKC,0.00,VWS V13.00,2013-05-26 15:27:00,
2013-05-26 10:32:00,76.4,57.0,30.21,West,261,2.0,6.0,51,0.00,,SKC,0.00,VWS V13.00,2013-05-26 15:32:00,
2013-05-26 10:37:00,76.4,55.8,30.21,SW,229,2.0,5.0,49,0.00,,SKC,0.00,VWS V13.00,2013-05-26 15:37:00,
2013-05-26 10:42:00,76.4,55.8,30.21,East,95,1.0,5.0,49,0.00,,SKC,0.00,VWS V13.00,2013-05-26 15:42:00,
2013-05-26 10:47:00,76.4,56.4,30.21,NNW,327,0.0,5.0,50,0.00,,SKC,0.00,VWS V13.00,2013-05-26 15:47:00,
2013-05-26 10:52:00,76.7,57.2,30.21,SE,128,1.0,5.0,51,0.00,,SKC,0.00,VWS V13.00,2013-05-26 15:52:00,
2013-05-26 10:57:00,77.2,60.8,30.21,SSW,200,1.0,8.0,57,0.00,,SKC,0.00,VWS V13.00,2013-05-26 15:57:00,
2013-05-26 11:02:00,77.3,59.4,30.21,South,186,2.0,8.0,54,0.00,,SKC,0.00,VWS V13.00,2013-05-26 16:02:00,
2013-05-26 11:07:00,77.5,57.4,30.21,East,92,1.0,5.0,50,0.00,,SKC,0.00,VWS V13.00,2013-05-26 16:07:00,
2013-05-26 11:12:00,77.8,58.2,30.21,West,264,1.0,5.0,51,0.00,,SKC,0.00,VWS V13.00,2013-05-26 16:12:00,
2013-05-26 11:17:00,78.2,58.1,30.21,WSW,254,5.0,7.0,50,0.00,,SKC,0.00,VWS V13.00,2013-05-26 16:17:00,
2013-05-26 11:22:00,78.1,58.5,30.21,South,181,1.0,7.0,51,0.00,,SKC,0.00,VWS V13.00,2013-05-26 16:22:00,
2013-05-26 11:27:00,78.0,56.2,30.21,SSE,152,3.0,7.0,47,0.00,,SKC,0.00,VWS V13.00,2013-05-26 16:27:00,
2013-05-26 11:32:00,78.1,57.4,30.20,West,277,0.0,7.0,49,0.00,,SKC,0.00,VWS V13.00,2013-05-26 16:32:00,
2013-05-26 11:37:00,78.2,56.3,30.20,ESE,113,1.0,3.0,47,0.00,,SKC,0.00,VWS V13.00,2013-05-26 16:37:00,
2013-05-26 11:41:00,78.4,58.2,30.20,SSW,202,5.0,9.0,50,0.00,,SKC,0.00,VWS V13.00,2013-05-26 16:41:00,
2013-05-26 11:46:00,78.2,59.2,30.20,SW,215,1.0,10.0,52,0.00,,SKC,0.00,VWS V13.00,2013-05-26 16:46:00,
2013-05-26 11:51:00,78.0,56.2,30.19,ENE,62,0.0,10.0,47,0.00,,SKC,0.00,VWS V13.00,2013-05-26 16:51:00,
2013-05-26 11:56:00,78.3,58.2,30.19,SSW,202,3.0,10.0,50,0.00,,SKC,0.00,VWS V13.00,2013-05-26 16:56:00,
2013-05-26 12:01:00,79.0,57.7,30.19,WSW,246,4.0,10.0,48,0.00,,SKC,0.00,VWS V13.00,2013-05-26 17:01:00,
2013-05-26 12:06:00,78.7,57.4,30.20,NW,317,5.0,8.0,48,0.00,,SKC,0.00,VWS V13.00,2013-05-26 17:06:00,
2013-05-26 12:11:00,78.5,57.8,30.19,SW,225,3.0,8.0,49,0.00,,SKC,0.00,VWS V13.00,2013-05-26 17:11:00,
2013-05-26 12:16:00,78.9,58.1,30.19,SW,233,4.0,8.0,49,0.00,,SKC,0.00,VWS V13.00,2013-05-26 17:16:00,
2013-05-26 12:21:00,79.0,58.8,30.19,SW,217,1.0,8.0,50,0.00,,SKC,0.00,VWS V13.00,2013-05-26 17:21:00,
2013-05-26 12:26:00,79.1,60.0,30.19,SE,136,7.0,9.0,52,0.00,,SKC,0.00,VWS V13.00,2013-05-26 17:26:00,
2013-05-26 12:31:00,79.2,56.7,30.19,SW,225,5.0,9.0,46,0.00,,SKC,0.00,VWS V13.00,2013-05-26 17:31:00,
2013-05-26 12:36:00,79.2,57.2,30.19,SSE,165,3.0,8.0,47,0.00,,SKC,0.00,VWS V13.00,2013-05-26 17:36:00,
2013-05-26 12:41:00,79.2,59.0,30.19,South,186,4.0,8.0,50,0.00,,SKC,0.00,VWS V13.00,2013-05-26 17:41:00,
2013-05-26 12:46:00,79.6,58.2,30.18,WNW,284,10.0,10.0,48,0.00,,SKC,0.00,VWS V13.00,2013-05-26 17:46:00,
2013-05-26 12:51:00,79.7,55.9,30.18,West,275,1.0,10.0,44,0.00,,SKC,0.00,VWS V13.00,2013-05-26 17:51:00,
2013-05-26 12:56:00,79.6,60.4,30.18,WNW,291,4.0,10.0,52,0.00,,SKC,0.00,VWS V13.00,2013-05-26 17:56:00,
2013-05-26 13:01:00,79.5,55.1,30.18,West,275,2.0,10.0,43,0.00,,SKC,0.00,VWS V13.00,2013-05-26 18:01:00,
2013-05-26 13:06:00,79.4,56.8,30.18,North,355,4.0,4.0,46,0.00,,SKC,0.00,VWS V13.00,2013-05-26 18:06:00,
2013-05-26 13:11:00,79.4,56.2,30.18,NNE,31,4.0,9.0,45,0.00,,SKC,0.00,VWS V13.00,2013-05-26 18:11:00,
2013-05-26 13:16:00,79.5,58.1,30.17,SW,219,7.0,11.0,48,0.00,,SKC,0.00,VWS V13.00,2013-05-26 18:16:00,
2013-05-26 13:21:00,80.1,59.8,30.17,SSW,196,4.0,11.0,50,0.00,,SKC,0.00,VWS V13.00,2013-05-26 18:21:00,
2013-05-26 13:26:00,80.3,55.8,30.17,SSW,210,6.0,11.0,43,0.00,,SKC,0.00,VWS V13.00,2013-05-26 18:26:00,
2013-05-26 13:31:00,80.3,55.1,30.17,SW,223,4.0,11.0,42,0.00,,SKC,0.00,VWS V13.00,2013-05-26 18:31:00,
2013-05-26 13:36:00,80.4,57.1,30.17,SSW,202,1.0,9.0,45,0.00,,SKC,0.00,VWS V13.00,2013-05-26 18:36:00,
2013-05-26 13:41:00,80.6,56.1,30.17,NW,307,3.0,9.0,43,0.00,,SKC,0.00,VWS V13.00,2013-05-26 18:41:00,
2013-05-26 13:46:00,80.7,56.2,30.17,West,271,4.0,9.0,43,0.00,,SKC,0.00,VWS V13.00,2013-05-26 18:46:00,
2013-05-26 13:51:00,81.0,59.5,30.17,WNW,294,0.0,9.0,48,0.00,,SKC,0.00,VWS V13.00,2013-05-26 18:51:00,
2013-05-26 13:56:00,81.4,54.8,30.17,ESE,122,1.0,9.0,40,0.00,,SKC,0.00,VWS V13.00,2013-05-26 18:56:00,
2013-05-26 14:01:00,81.5,60.5,30.17,SW,222,7.0,9.0,49,0.00,,SKC,0.00,VWS V13.00,2013-05-26 19:01:00,
2013-05-26 14:06:00,81.2,55.3,30.17,SSW,194,3.0,9.0,41,0.00,,SKC,0.00,VWS V13.00,2013-05-26 19:06:00,
2013-05-26 14:11:00,81.2,57.9,30.17,SSW,206,5.0,9.0,45,0.00,,SKC,0.00,VWS V13.00,2013-05-26 19:11:00,
2013-05-26 14:16:00,81.3,57.3,30.17,South,183,4.0,9.0,44,0.00,,SKC,0.00,VWS V13.00,2013-05-26 19:16:00,
2013-05-26 14:21:00,81.6,55.6,30.16,SW,216,2.0,9.0,41,0.00,,SKC,0.00,VWS V13.00,2013-05-26 19:21:00,
2013-05-26 14:26:00,81.6,54.3,30.16,SW,217,0.0,9.0,39,0.00,,SKC,0.00,VWS V13.00,2013-05-26 19:26:00,
2013-05-26 14:31:00,81.7,57.0,30.16,WNW,293,2.0,9.0,43,0.00,,SKC,0.00,VWS V13.00,2013-05-26 19:31:00,
2013-05-26 14:36:00,81.6,56.3,30.16,SSW,197,7.0,10.0,42,0.00,,SKC,0.00,VWS V13.00,2013-05-26 19:36:00,
2013-05-26 14:41:00,81.4,59.8,30.16,South,173,1.0,10.0,48,0.00,,SKC,0.00,VWS V13.00,2013-05-26 19:41:00,
2013-05-26 14:46:00,81.7,56.4,30.15,West,263,2.0,10.0,42,0.00,,SKC,0.00,VWS V13.00,2013-05-26 19:46:00,
2013-05-26 14:51:00,82.0,56.7,30.15,West,260,5.0,10.0,42,0.00,,SKC,0.00,VWS V13.00,2013-05-26 19:51:00,
2013-05-26 14:56:00,81.9,55.2,30.15,SW,232,0.0,10.0,40,0.00,,SKC,0.00,VWS V13.00,2013-05-26 19:56:00,
2013-05-26 15:01:00,82.1,58.0,30.15,SSW,196,1.0,10.0,44,0.00,,SKC,0.00,VWS V13.00,2013-05-26 20:01:00,
2013-05-26 15:06:00,82.1,56.8,30.15,SE,138,2.0,7.0,42,0.00,,SKC,0.00,VWS V13.00,2013-05-26 20:06:00,
2013-05-26 15:11:00,81.7,57.7,30.14,SE,129,6.0,7.0,44,0.00,,SKC,0.00,VWS V13.00,2013-05-26 20:11:00,
2013-05-26 15:16:00,81.9,55.2,30.14,SW,232,1.0,8.0,40,0.00,,SKC,0.00,VWS V13.00,2013-05-26 20:16:00,
2013-05-26 15:21:00,82.3,54.9,30.14,SW,236,6.0,8.0,39,0.00,,SKC,0.00,VWS V13.00,2013-05-26 20:21:00,
2013-05-26 15:26:00,82.4,54.3,30.14,WNW,286,3.0,8.0,38,0.00,,SKC,0.00,VWS V13.00,2013-05-26 20:26:00,
2013-05-26 15:31:00,82.5,55.1,30.14,WNW,283,1.0,8.0,39,0.00,,SKC,0.00,VWS V13.00,2013-05-26 20:31:00,
2013-05-26 15:36:00,82.8,59.3,30.14,SSW,197,6.0,7.0,45,0.00,,SKC,0.00,VWS V13.00,2013-05-26 20:36:00,
2013-05-26 15:41:00,82.9,56.8,30.13,NW,313,5.0,7.0,41,0.00,,SKC,0.00,VWS V13.00,2013-05-26 20:41:00,
2013-05-26 15:46:00,83.0,55.5,30.14,NW,319,2.0,7.0,39,0.00,,SKC,0.00,VWS V13.00,2013-05-26 20:46:00,
2013-05-26 15:51:00,82.8,50.8,30.14,East,80,1.0,7.0,33,0.00,,SKC,0.00,VWS V13.00,2013-05-26 20:51:00,
2013-05-26 15:56:00,83.0,54.1,30.13,NE,47,1.0,7.0,37,0.00,,SKC,0.00,VWS V13.00,2013-05-26 20:56:00,
2013-05-26 16:01:00,83.4,55.9,30.13,NW,323,7.0,7.0,39,0.00,,SKC,0.00,VWS V13.00,2013-05-26 21:01:00,
2013-05-26 16:06:00,82.8,53.2,30.13,WNW,299,0.0,8.0,36,0.00,,SKC,0.00,VWS V13.00,2013-05-26 21:06:00,
2013-05-26 16:11:00,82.8,50.0,30.13,West,269,0.0,8.0,32,0.00,,SKC,0.00,VWS V13.00,2013-05-26 21:11:00,
2013-05-26 16:16:00,83.0,51.0,30.13,North,355,2.0,8.0,33,0.00,,SKC,0.00,VWS V13.00,2013-05-26 21:16:00,
2013-05-26 16:21:00,83.1,54.9,30.13,SW,236,1.0,8.0,38,0.00,,SKC,0.00,VWS V13.00,2013-05-26 21:21:00,
2013-05-26 16:26:00,83.2,57.8,30.13,SSE,168,0.0,8.0,42,0.00,,SKC,0.00,VWS V13.00,2013-05-26 21:26:00,
2013-05-26 16:31:00,83.1,54.2,30.13,SW,232,5.0,8.0,37,0.00,,SKC,0.00,VWS V13.00,2013-05-26 21:31:00,
2013-05-26 16:36:00,82.8,53.9,30.12,WSW,239,0.0,5.0,37,0.00,,SKC,0.00,VWS V13.00,2013-05-26 21:36:00,
2013-05-26 16:41:00,82.9,54.7,30.13,SSW,210,0.0,5.0,38,0.00,,SKC,0.00,VWS V13.00,2013-05-26 21:41:00,
2013-05-26 16:46:00,83.3,56.5,30.12,West,261,0.0,5.0,40,0.00,,SKC,0.00,VWS V13.00,2013-05-26 21:46:00,
2013-05-26 16:51:00,83.6,53.8,30.12,WSW,249,2.0,6.0,36,0.00,,SKC,0.00,VWS V13.00,2013-05-26 21:51:00,
2013-05-26 16:56:00,83.5,53.8,30.12,WNW,287,2.0,6.0,36,0.00,,SKC,0.00,VWS V13.00,2013-05-26 21:56:00,
2013-05-26 17:01:00,83.6,55.3,30.12,West,263,0.0,7.0,38,0.00,,SKC,0.00,VWS V13.00,2013-05-26 22:01:00,
2013-05-26 17:06:00,83.6,53.1,30.12,WNW,290,0.0,6.0,35,0.00,,SKC,0.00,VWS V13.00,2013-05-26 22:06:00,
2013-05-26 17:11:00,83.4,55.2,30.12,WNW,288,4.0,7.0,38,0.00,,SKC,0.00,VWS V13.00,2013-05-26 22:11:00,
2013-05-26 17:16:00,83.3,54.3,30.12,WNW,288,2.0,7.0,37,0.00,,SKC,0.00,VWS V13.00,2013-05-26 22:16:00,
2013-05-26 17:21:00,83.2,52.7,30.12,West,276,2.0,7.0,35,0.00,,SKC,0.00,VWS V13.00,2013-05-26 22:21:00,
2013-05-26 17:26:00,83.3,52.8,30.12,West,281,0.0,7.0,35,0.00,,SKC,0.00,VWS V13.00,2013-05-26 22:26:00,
2013-05-26 17:31:00,83.6,53.1,30.11,West,266,1.0,7.0,35,0.00,,SKC,0.00,VWS V13.00,2013-05-26 22:31:00,
2013-05-26 17:36:00,83.6,54.6,30.11,SW,219,1.0,5.0,37,0.00,,SKC,0.00,VWS V13.00,2013-05-26 22:36:00,
2013-05-26 17:41:00,83.2,51.9,30.12,WSW,247,0.0,7.0,34,0.00,,SKC,0.00,VWS V13.00,2013-05-26 22:41:00,
2013-05-26 17:46:00,82.9,53.2,30.11,SW,217,4.0,7.0,36,0.00,,SKC,0.00,VWS V13.00,2013-05-26 22:46:00,
2013-05-26 17:50:00,82.6,53.0,30.11,SW,224,2.0,7.0,36,0.00,,SKC,0.00,VWS V13.00,2013-05-26 22:50:00,
2013-05-26 17:55:00,82.6,54.5,30.11,SW,218,1.0,7.0,38,0.00,,SKC,0.00,VWS V13.00,2013-05-26 22:55:00,
2013-05-26 18:00:00,82.7,51.5,30.11,SW,218,0.0,7.0,34,0.00,,SKC,0.00,VWS V13.00,2013-05-26 23:00:00,
2013-05-26 18:05:00,82.5,52.1,30.10,SW,234,0.0,6.0,35,0.00,,SKC,0.00,VWS V13.00,2013-05-26 23:05:00,
2013-05-26 18:10:00,82.5,53.6,30.10,SSW,199,2.0,6.0,37,0.00,,SKC,0.00,VWS V13.00,2013-05-26 23:10:00,
2013-05-26 18:15:00,82.2,53.4,30.10,SSW,213,2.0,6.0,37,0.00,,SKC,0.00,VWS V13.00,2013-05-26 23:15:00,
2013-05-26 18:20:00,82.0,51.7,30.10,SW,236,1.0,6.0,35,0.00,,SKC,0.00,VWS V13.00,2013-05-26 23:20:00,
2013-05-26 18:25:00,82.0,52.4,30.10,WSW,239,1.0,6.0,36,0.00,,SKC,0.00,VWS V13.00,2013-05-26 23:25:00,
2013-05-26 18:30:00,81.8,54.5,30.10,WSW,240,0.0,6.0,39,0.00,,SKC,0.00,VWS V13.00,2013-05-26 23:30:00,
2013-05-26 18:35:00,81.5,54.2,30.10,SW,230,1.0,4.0,39,0.00,,SKC,0.00,VWS V13.00,2013-05-26 23:35:00,
2013-05-26 18:40:00,80.9,54.3,30.10,SW,231,0.0,4.0,40,0.00,,SKC,0.00,VWS V13.00,2013-05-26 23:40:00,
2013-05-26 18:45:00,80.5,55.3,30.10,SW,231,0.0,4.0,42,0.00,,SKC,0.00,VWS V13.00,2013-05-26 23:45:00,
2013-05-26 18:50:00,80.2,57.0,30.10,SW,231,0.0,4.0,45,0.00,,SKC,0.00,VWS V13.00,2013-05-26 23:50:00,
2013-05-26 18:55:00,79.6,55.8,30.10,SW,231,0.0,4.0,44,0.00,,SKC,0.00,VWS V13.00,2013-05-26 23:55:00,
2013-05-26 19:00:00,78.7,55.6,30.11,SW,231,0.0,4.0,45,0.00,,SKC,0.00,VWS V13.00,2013-05-27 00:00:00,
2013-05-26 19:05:00,78.2,57.5,30.10,SW,231,0.0,0.0,49,0.00,,SKC,0.00,VWS V13.00,2013-05-27 00:05:00,
2013-05-26 19:10:00,77.7,57.0,30.10,SW,231,0.0,0.0,49,0.00,,SKC,0.00,VWS V13.00,2013-05-27 00:10:00,
2013-05-26 19:15:00,76.9,55.2,30.10,WSW,238,0.0,1.0,47,0.00,,SKC,0.00,VWS V13.00,2013-05-27 00:15:00,
2013-05-26 19:20:00,76.4,54.7,30.10,WSW,238,0.0,1.0,47,0.00,,SKC,0.00,VWS V13.00,2013-05-27 00:20:00,
2013-05-26 19:25:00,75.8,54.7,30.10,WSW,238,0.0,1.0,48,0.00,,SKC,0.00,VWS V13.00,2013-05-27 00:25:00,
2013-05-26 19:30:00,75.0,54.6,30.10,WSW,238,0.0,1.0,49,0.00,,SKC,0.00,VWS V13.00,2013-05-27 00:30:00,
2013-05-26 19:35:00,74.2,54.4,30.10,WSW,238,0.0,0.0,50,0.00,,SKC,0.00,VWS V13.00,2013-05-27 00:35:00,
2013-05-26 19:40:00,73.4,53.7,30.10,WSW,238,0.0,0.0,50,0.00,,SKC,0.00,VWS V13.00,2013-05-27 00:40:00,
2013-05-26 19:45:00,73.0,54.4,30.11,WSW,238,0.0,0.0,52,0.00,,SKC,0.00,VWS V13.00,2013-05-27 00:45:00,
2013-05-26 19:50:00,72.3,54.7,30.11,WSW,238,0.0,0.0,54,0.00,,SKC,0.00,VWS V13.00,2013-05-27 00:50:00,
2013-05-26 19:55:00,71.8,53.8,30.11,WSW,238,0.0,0.0,53,0.00,,SKC,0.00,VWS V13.00,2013-05-27 00:55:00,
2013-05-26 20:00:00,71.2,54.2,30.11,South,178,4.0,5.0,55,0.00,,SKC,0.00,VWS V13.00,2013-05-27 01:00:00,
2013-05-26 20:05:00,71.1,53.6,30.10,South,169,1.0,4.0,54,0.00,,SKC,0.00,VWS V13.00,2013-05-27 01:05:00,
2013-05-26 20:10:00,70.8,54.3,30.10,South,172,2.0,5.0,56,0.00,,SKC,0.00,VWS V13.00,2013-05-27 01:10:00,
2013-05-26 20:15:00,70.7,55.2,30.10,South,173,2.0,5.0,58,0.00,,SKC,0.00,VWS V13.00,2013-05-27 01:15:00,
2013-05-26 20:20:00,70.7,55.7,30.10,South,191,5.0,6.0,59,0.00,,SKC,0.00,VWS V13.00,2013-05-27 01:20:00,
2013-05-26 20:25:00,71.1,56.1,30.10,South,183,2.0,6.0,59,0.00,,SKC,0.00,VWS V13.00,2013-05-27 01:25:00,
2013-05-26 20:30:00,71.3,56.7,30.10,South,183,1.0,6.0,60,0.00,,SKC,0.00,VWS V13.00,2013-05-27 01:30:00,
2013-05-26 20:35:00,71.3,56.7,30.10,South,183,0.0,2.0,60,0.00,,SKC,0.00,VWS V13.00,2013-05-27 01:35:00,
2013-05-26 20:40:00,71.4,57.3,30.10,South,183,0.0,3.0,61,0.00,,SKC,0.00,VWS V13.00,2013-05-27 01:40:00,
2013-05-26 20:45:00,71.4,57.3,30.10,South,183,2.0,3.0,61,0.00,,SKC,0.00,VWS V13.00,2013-05-27 01:45:00,
2013-05-26 20:50:00,71.3,57.6,30.10,South,177,0.0,4.0,62,0.00,,SKC,0.00,VWS V13.00,2013-05-27 01:50:00,
2013-05-26 20:55:00,71.0,57.3,30.10,South,177,1.0,4.0,62,0.00,,SKC,0.00,VWS V13.00,2013-05-27 01:55:00,
2013-05-26 21:00:00,70.9,57.7,30.11,South,177,0.0,4.0,63,0.00,,SKC,0.00,VWS V13.00,2013-05-27 02:00:00,
2013-05-26 21:05:00,70.4,57.7,30.11,South,175,1.0,3.0,64,0.00,,SKC,0.00,VWS V13.00,2013-05-27 02:05:00,
2013-05-26 21:10:00,70.0,57.7,30.11,South,175,0.0,3.0,65,0.00,,SKC,0.00,VWS V13.00,2013-05-27 02:10:00,
2013-05-26 21:15:00,69.6,58.2,30.11,South,175,0.0,3.0,67,0.00,,SKC,0.00,VWS V13.00,2013-05-27 02:15:00,
2013-05-26 21:20:00,69.3,58.3,30.11,South,175,0.0,3.0,68,0.00,,SKC,0.00,VWS V13.00,2013-05-27 02:20:00,
2013-05-26 21:25:00,69.3,58.3,30.11,South,175,2.0,3.0,68,0.00,,SKC,0.00,VWS V13.00,2013-05-27 02:25:00,
2013-05-26 21:30:00,69.4,58.4,30.11,South,175,1.0,3.0,68,0.00,,SKC,0.00,VWS V13.00,2013-05-27 02:30:00,
2013-05-26 21:35:00,69.3,58.3,30.12,South,175,1.0,4.0,68,0.00,,SKC,0.00,VWS V13.00,2013-05-27 02:35:00,
2013-05-26 21:40:00,69.0,58.4,30.12,South,175,1.0,4.0,69,0.00,,SKC,0.00,VWS V13.00,2013-05-27 02:40:00,
2013-05-26 21:45:00,69.0,58.4,30.12,South,172,1.0,4.0,69,0.00,,SKC,0.00,VWS V13.00,2013-05-27 02:45:00,
2013-05-26 21:50:00,69.0,58.4,30.12,SSE,168,1.0,4.0,69,0.00,,SKC,0.00,VWS V13.00,2013-05-27 02:50:00,
2013-05-26 21:55:00,69.2,58.2,30.12,South,175,1.0,5.0,68,0.00,,SKC,0.00,VWS V13.00,2013-05-27 02:55:00,
2013-05-26 22:00:00,68.9,58.3,30.12,South,175,2.0,5.0,69,0.00,,SKC,0.00,VWS V13.00,2013-05-27 03:00:00,
2013-05-26 22:05:00,68.6,58.4,30.12,South,175,1.0,3.0,70,0.00,,SKC,0.00,VWS V13.00,2013-05-27 03:05:00,
2013-05-26 22:10:00,68.2,58.0,30.12,South,171,0.0,4.0,70,0.00,,SKC,0.00,VWS V13.00,2013-05-27 03:10:00,
2013-05-26 22:15:00,67.8,58.1,30.12,South,171,1.0,4.0,71,0.00,,SKC,0.00,VWS V13.00,2013-05-27 03:15:00,
2013-05-26 22:20:00,67.5,59.3,30.12,South,171,0.0,4.0,75,0.00,,SKC,0.00,VWS V13.00,2013-05-27 03:20:00,
2013-05-26 22:25:00,67.0,59.2,30.12,South,171,0.0,4.0,76,0.00,,SKC,0.00,VWS V13.00,2013-05-27 03:25:00,
2013-05-26 22:30:00,66.1,59.0,30.12,South,171,0.0,4.0,78,0.00,,SKC,0.00,VWS V13.00,2013-05-27 03:30:00,
2013-05-26 22:35:00,65.4,59.4,30.12,South,171,0.0,0.0,81,0.00,,SKC,0.00,VWS V13.00,2013-05-27 03:35:00,
2013-05-26 22:40:00,64.9,59.3,30.12,South,171,0.0,0.0,82,0.00,,SKC,0.00,VWS V13.00,2013-05-27 03:40:00,
2013-05-26 22:45:00,64.4,59.8,30.12,South,171,0.0,0.0,85,0.00,,SKC,0.00,VWS V13.00,2013-05-27 03:45:00,
2013-05-26 22:50:00,64.0,59.7,30.12,South,171,0.0,0.0,86,0.00,,SKC,0.00,VWS V13.00,2013-05-27 03:50:00,
2013-05-26 22:55:00,63.8,60.2,30.12,South,171,0.0,0.0,88,0.00,,SKC,0.00,VWS V13.00,2013-05-27 03:55:00,
2013-05-26 23:00:00,63.4,59.5,30.12,South,171,0.0,0.0,87,0.00,,SKC,0.00,VWS V13.00,2013-05-27 04:00:00,
2013-05-26 23:01:00,63.3,59.4,30.12,South,171,0.0,0.0,87,0.00,,SKC,0.00,VWS V13.00,2013-05-27 04:01:00,
2013-05-26 23:06:00,63.0,59.7,30.12,South,171,0.0,0.0,89,0.00,,SKC,0.00,VWS V13.00,2013-05-27 04:06:00,
2013-05-26 23:11:00,62.8,59.2,30.12,South,171,0.0,0.0,88,0.00,,SKC,0.00,VWS V13.00,2013-05-27 04:11:00,
2013-05-26 23:16:00,62.6,59.0,30.12,South,171,0.0,0.0,88,0.00,,SKC,0.00,VWS V13.00,2013-05-27 04:16:00,
2013-05-26 23:21:00,62.5,59.2,30.12,South,171,0.0,0.0,89,0.00,,SKC,0.00,VWS V13.00,2013-05-27 04:21:00,
2013-05-26 23:26:00,62.4,58.8,30.12,South,171,0.0,0.0,88,0.00,,SKC,0.00,VWS V13.00,2013-05-27 04:26:00,
2013-05-26 23:31:00,62.2,58.6,30.11,South,171,0.0,0.0,88,0.00,,SKC,0.00,VWS V13.00,2013-05-27 04:31:00,
2013-05-26 23:36:00,62.0,58.1,30.11,South,171,0.0,0.0,87,0.00,,SKC,0.00,VWS V13.00,2013-05-27 04:36:00,
2013-05-26 23:41:00,61.7,57.8,30.12,South,171,0.0,0.0,87,0.00,,SKC,0.00,VWS V13.00,2013-05-27 04:41:00,
2013-05-26 23:46:00,61.7,58.4,30.12,South,171,0.0,0.0,89,0.00,,SKC,0.00,VWS V13.00,2013-05-27 04:46:00,
2013-05-26 23:51:00,61.6,58.3,30.11,South,171,0.0,0.0,89,0.00,,SKC,0.00,VWS V13.00,2013-05-27 04:51:00,
2013-05-26 23:56:00,61.5,58.2,30.11,South,171,0.0,0.0,89,0.00,,SKC,0.00,VWS V13.00,2013-05-27 04:56:00,